Content
SEND FEEDBACK

Daily
Averages
Monthly
Summary
United States of America

COLUMBIA, VIRGINIA


Home > North America > United States > Virginia
Elevation: 293 feet     Latitude: 37 42N     Longitude: 078 18W

WEATHER
 
SELECT A DAY
Number of Records: 83,915;   Date Range: 2/1/11 - 10/20/14
 
SHARE

PRINT THIS DATA

[ ← Previous Day ]
WEATHER ALMANAC - JULY 22, 2014
[ Next Day → ]
[ °C ]   °F
Weather ElementAverageHighLow
Temperature78.1 °F87.8 °F (2:55 pm)71.6 °F (12:35 am)
Dewpoint70.3 °F73.4 °F (9:15 am)66.2 °F (12:15 am)
Humidity79.4 %100 % (12:55 am)49 % (1:55 pm)
Barometer29.73 in30.19 in (12:55 am)3.01 in (2:35 pm)
Wind Speed1.7 mph9.2 mph (10:55 am)
Weather ElementAverage
Visibility9.4 mi
Wind DirectionENE (60.3 °)

Weather ElementTotal
Precipitation---
Cooling Degree Days14.7 (Base 65)
Growing Degree Days29.7 (Base 50)
Averaged from 67 records on July 22, 2014
WEATHER CONDITIONS BREAKOUT
WIND DIRECTION BREAKOUT
WEATHER BY HOUR - JULY 22, 2014
[ °C ]   °F
Local TimeTemperatureDewpointHumidityBarometerVisibilityWind DirectionWind SpeedGust SpeedPrecipitationEventsConditions
12:15 AM73.4 °F71.6 °F94 %30.17 in10.0 miSE (140°)3.5 mphOvercast
12:35 AM73.4 °F71.6 °F94 %30.16 in10.0 miCalmOvercast
12:55 AM73.4 °F71.6 °F94 %30.16 in10.0 miCalmOvercast
1:15 AM73.4 °F71.6 °F94 %30.16 in10.0 miCalmOvercast
1:35 AM73.4 °F73.4 °F100 %30.16 in10.0 miCalmOvercast
1:55 AM73.4 °F73.4 °F100 %30.16 in10.0 miCalmOvercast
2:15 AM73.4 °F71.6 °F94 %30.16 in10.0 miCalmOvercast
2:35 AM73.4 °F71.6 °F94 %30.15 in10.0 miCalmOvercast
2:55 AM73.4 °F71.6 °F94 %30.15 in10.0 miCalmOvercast
3:15 AM73.4 °F71.6 °F94 %30.15 in10.0 miCalmOvercast
3:35 AM71.6 °F71.6 °F100 %30.14 in7.0 miCalmOvercast
3:55 AM71.6 °F71.6 °F100 %30.14 in7.0 miCalmOvercast
4:15 AM71.6 °F71.6 °F100 %30.14 in7.0 miCalmOvercast
4:35 AM71.6 °F71.6 °F100 %30.14 in7.0 miCalmOvercast
4:55 AM71.6 °F71.6 °F100 %30.14 in7.0 miCalmOvercast
5:15 AM71.6 °F71.6 °F100 %30.14 in7.0 miCalmOvercast
5:35 AM71.6 °F71.6 °F100 %30.14 in7.0 miSSE (160°)3.5 mphOvercast
5:55 AM71.6 °F71.6 °F100 %30.14 in5.0 miCalmOvercast
6:15 AM71.6 °F71.6 °F100 %30.15 in4.0 miCalmOvercast
7:35 AM73.4 °F71.6 °F94 %30.18 in7.0 miCalmOvercast
7:55 AM73.4 °F71.6 °F94 %30.18 in7.0 miCalmOvercast
8:15 AM73.4 °F73.4 °F100 %30.18 in10.0 miCalmOvercast
8:35 AM73.4 °F73.4 °F100 %30.19 in10.0 miCalmOvercast
8:55 AM73.4 °F73.4 °F100 %30.19 in10.0 miCalmOvercast
9:15 AM75.2 °F73.4 °F94 %30.18 in10.0 miCalmOvercast
9:35 AM75.2 °F73.4 °F94 %30.18 in10.0 miSouth (170°)3.5 mphOvercast
9:55 AM75.2 °F73.4 °F94 %30.18 in10.0 miCalmOvercast
10:15 AM75.2 °F73.4 °F94 %30.18 in10.0 miSSE (160°)4.6 mphOvercast
10:35 AM77.0 °F73.4 °F89 %30.18 in10.0 miCalmOvercast
10:55 AM78.8 °F69.8 °F74 %30.18 in10.0 miCalmOvercast
11:15 AM78.8 °F69.8 °F74 %30.18 in10.0 miSE (130°)4.6 mphOvercast
11:35 AM78.8 °F69.8 °F74 %30.17 in10.0 miSSE (160°)3.5 mphOvercast
11:55 AM82.4 °F68.0 °F62 %30.16 in10.0 miENE (70°)3.5 mphScattered Clouds
12:15 PM82.4 °F68.0 °F62 %30.16 in10.0 miSSW (210°)3.5 mphMostly Cloudy
12:35 PM82.4 °F68.0 °F62 %30.15 in10.0 miCalmMostly Cloudy
1:15 PM84.2 °F66.2 °F55 %30.14 in10.0 miSSE (160°)4.6 mphMostly Cloudy
1:35 PM82.4 °F66.2 °F58 %30.14 in10.0 miSSE (160°)4.6 mphMostly Cloudy
1:55 PM82.4 °F68.0 °F62 %30.13 in10.0 miCalmOvercast
2:15 PM84.2 °F69.8 °F62 %30.13 in10.0 miENE (70°)4.6 mphOvercast
2:35 PM87.8 °F68.0 °F52 %3.01 in10.0 miSSE (160°)6.9 mphMostly Cloudy
2:55 PM84.2 °F69.8 °F62 %30.12 in10.0 miSouth (190°)9.2 mphScattered Clouds
3:15 PM82.4 °F68.0 °F62 %30.11 in10.0 miSSW (200°)3.5 mphMostly Cloudy
3:35 PM84.2 °F68.0 °F58 %30.11 in10.0 miCalmOvercast
3:55 PM86.0 °F68.0 °F55 %30.10 in10.0 miSouth (170°)3.5 mphMostly Cloudy
4:15 PM84.2 °F66.2 °F55 %30.10 in10.0 miSouth (170°)3.5 mphMostly Cloudy
4:35 PM86.0 °F66.2 °F51 %30.09 in10.0 miCalmMostly Cloudy
4:55 PM84.2 °F66.2 °F55 %30.09 in10.0 miCalmScattered Clouds
5:15 PM87.8 °F69.8 °F55 %30.09 in10.0 miSSW (210°)6.9 mphMostly Cloudy
5:35 PM87.8 °F68.0 °F52 %30.09 in10.0 miSSW (200°)4.6 mphMostly Cloudy
5:55 PM87.8 °F66.2 °F49 %30.08 in10.0 miSouth (170°)5.8 mphScattered Clouds
6:15 PM86.0 °F68.0 °F55 %30.08 in10.0 miSouth (190°)5.8 mphScattered Clouds
6:35 PM87.8 °F66.2 °F49 %30.08 in10.0 miCalmScattered Clouds
6:55 PM86.0 °F68.0 °F55 %30.08 in10.0 miSSE (160°)5.8 mphClear
7:15 PM84.2 °F66.2 °F55 %30.08 in10.0 miSSE (160°)4.6 mphScattered Clouds
7:35 PM82.4 °F68.0 °F62 %30.07 in10.0 miSE (140°)3.5 mphScattered Clouds
7:55 PM82.4 °F68.0 °F62 %30.07 in10.0 miCalmScattered Clouds
8:15 PM80.6 °F68.0 °F65 %30.07 in10.0 miSouth (170°)3.5 mphClear
8:35 PM78.8 °F69.8 °F74 %30.07 in10.0 miCalmClear
8:55 PM78.8 °F69.8 °F74 %30.08 in10.0 miCalmClear
9:15 PM77.0 °F69.8 °F78 %30.08 in7.0 miCalmClear
9:55 PM75.2 °F69.8 °F83 %30.09 in10.0 miCalmClear
10:15 PM75.2 °F71.6 °F89 %30.09 in10.0 miSSE (160°)4.6 mphScattered Clouds
10:35 PM75.2 °F71.6 °F89 %30.09 in10.0 miCalmMostly Cloudy
10:55 PM75.2 °F71.6 °F89 %30.09 in10.0 miCalmMostly Cloudy
11:15 PM75.2 °F73.4 °F94 %30.09 in10.0 miCalmScattered Clouds
11:35 PM75.2 °F73.4 °F94 %30.09 in10.0 miCalmClear
11:55 PM73.4 °F73.4 °F100 %30.09 in10.0 miCalmClear
Hourly data recorded from KFVX, located miles away from Columbia, Virginia







STORIES FROM OUR PARTNERS